Вернуться в каталог

DELTA 1 DEB

АктивенSSO
NORAD 42634·DEBRIS·🇺🇸 United States

Запущен Jun 12, 1975 с Vandenberg Space Force Base

Loading…

Ближайшие Пролёты (ближайшие 24 часа)

TLE

СвежийSource: Space-Track

Эпоха: Sep 14, 2026, 08:12 UTC

1 42634U 75052LT  26257.34211885  .00000065  00000-0  21022-3 0  9993
2 42634  99.7391 118.3072 0062547  65.4466 295.3161 13.34427469624075

Отслеживайте DELTA 1 DEB в реальном времени с AllMySat

Download on the App Store